Flag for Germany Weather past 2 weeks in Westerstede, Lower Saxony, Germany

Now
77 °F

Scattered clouds.


Feels Like: 79 °F
Forecast: 63 / 85 °F
Wind: 6 mph from Southeast

Location: Wittmundhaven

Current Time: Aug 1, 2014 at 1:00:50 PM

Latest Report: Aug 1, 2014 at 12:20 PM


Visibility: N/A

Pressure: 29.86 "Hg

Humidity: 47%

Dew point: 55 °F

Location of WesterstedeLocation

Historic Weather in Westerstede — Graph

°F

Westerstede temperature yesterday

Maximum temperature yesterday: 72 °F (at 12:20 PM)
Minimum temperature yesterday: 55 °F (at 4:20 AM)
Average temperature yesterday: 64 °F

Past Weeks' High & Low Weather Summary

 TemperatureHumidityPressure
High91 °F (Jul 19, 2:20 PM)100% (Jul 18, 3:20 AM)30.18 "Hg (Jul 18, 3:20 AM)
Low55 °F (Jul 31, 4:20 AM)32% (Jul 19, 5:20 PM)29.77 "Hg (Jul 20, 6:20 PM)
Average70 °F74%29.97 "Hg
* Reported Jul 17 11:20 AM — Aug 1 11:20 AM, Westerstede, Weather by CustomWeather, © 2014

Note: Actual official high and low records may vary slightly from our data, if they occured in-between our weather recording intervals... More about our weather records

Advertising

Westerstede weather history for previous 24 hours

 ConditionsComfort  
Time TempWeatherWind HumidityBarometerVisibility
11:20 AM
Aug 1
75 °FScattered clouds.5 mph54%29.86 "HgN/A
10:20 AM73 °FScattered clouds.5 mph57%29.86 "HgN/A
9:20 AM70 °FPassing clouds.5 mph69%29.89 "HgN/A
8:20 AM64 °FPassing clouds.3 mph78%29.89 "HgN/A
7:20 AM59 °FScattered clouds.2 mph88%29.89 "HgN/A
6:20 AM57 °FFog.3 mph94%29.89 "Hg5 mi
5:20 AM57 °FFog.2 mph94%29.89 "Hg4 mi
4:20 AM59 °FFog.2 mph88%29.89 "Hg4 mi
3:20 AM59 °FFog.3 mph94%29.89 "Hg4 mi
2:20 AM61 °FFog.2 mph94%29.92 "Hg4 mi
1:20 AM61 °FFog.1 mph94%29.92 "Hg4 mi
12:20 AM61 °FFog.1 mph94%29.92 "Hg6 mi
11:20 PM
Jul 31
64 °FPassing clouds.2 mph88%29.92 "Hg6 mi
10:20 PM66 °FPartly sunny.2 mph88%29.92 "HgN/A
9:20 PM66 °FBroken clouds.2 mph88%29.92 "HgN/A
8:20 PM68 °FBroken clouds.5 mph83%29.92 "HgN/A
7:20 PM68 °FBroken clouds.3 mph83%29.92 "HgN/A
6:20 PM68 °FBroken clouds.3 mph83%29.92 "HgN/A
5:20 PM66 °FBroken clouds.5 mph88%29.95 "HgN/A
4:20 PM66 °FBroken clouds.3 mph83%29.95 "HgN/A
3:20 PM70 °FSprinkles. Broken clouds.5 mph64%29.95 "HgN/A
2:20 PM72 °FBroken clouds.9 mph61%29.95 "HgN/A
1:20 PM72 °FBroken clouds.10 mph61%29.95 "HgN/A
Weather by CustomWeather, © 2014

See weather overviewHow to use our weather pages